Regional Weather Roundup
Issued by NWS

Home | Current Version | Previous Version | Text Only | Print | Product List | Glossary Off
Versions: 1 2 3 4 5 6 7 8 9 10 11 12 13 14 15 16 17 18 19 20 21 22 23 24 25 26 27 28 29 30 31 32 33 34 35 36 37 38 39 40 41 42 43 44 45 46 47 48 49 50

000
ASUS45 KSLC 271110
RWRUT

UTAH REGIONAL WEATHER ROUNDUP
NATIONAL WEATHER SERVICE SALT LAKE CITY UT
400 AM MST THU NOV 27 2014

UTZ001>011-023>025-271200-

NORTHERN UTAH

CITY           SKY/WX    TMP DP  RH WIND       PRES   REMARKS
BRIGHAM CITY   MOCLDY    40  28  60 NW5       30.32F
HILL AFB       PTCLDY    42  25  51 E13       30.31F
LOGAN          CLEAR     38  28  67 NE7       30.30F WCI  33
OGDEN          PTCLDY    39  27  62 S7        30.31F WCI  34
PROVO AIRPORT  CLEAR     30  27  86 CALM      30.39F
SALT LAKE CITY PTCLDY    45  27  49 SE14      30.30F
VERNAL         MOCLDY    30  22  72 W5        30.41S WCI  25
WENDOVER       CLOUDY    36  27  69 CALM      30.31F
HEBER CITY     CLEAR     23  21  93 CALM      30.42F
WEST JORDAN    CLEAR     46  30  53 S12       30.33F

$$

UTZ012>022-026-027-271200-

SOUTHERN/CENTRAL UTAH

CITY           SKY/WX    TMP DP  RH WIND       PRES   REMARKS
BLANDING       PTCLDY    32  20  63 N7        30.52S WCI  25
BRYCE CANYON   CLEAR     22  13  68 W10       30.52R WCI  11
CEDAR CITY     PTCLDY    26  17  68 W3        30.41F
DELTA          MOCLDY    31  26  81 NE6       30.38F WCI  26
MILFORD        NOT AVBL
MOAB/CYNLANDS  CLEAR     31  18  58 CALM      30.43F
PRICE          CLEAR     30  21  69 NE8       30.44F WCI  22
ST GEORGE      SUNNY     37  14  38 SW3       30.40S
KANAB          PTCLDY    27  12  54 NE7       30.46F WCI  19

$$

REGIONAL REPORTS     COLORADO/ARIZONA

CITY           SKY/WX    TMP DP  RH WIND       PRES   REMARKS
CRAIG, CO      PTCLDY    24  21  88 CALM      30.42F
GRAND JUNCTION CLEAR     30  24  78 VRB5      30.46S WCI  25
RIFLE          PTCLDY    22  20  92 S3        30.50S
MONTROSE       PTCLDY    24  20  84 S9        30.51S WCI  14
CORTEZ         CLEAR     23  19  85 NE7       30.47F WCI  15
PAGE, AZ       PTCLDY    38  17  42 W3        30.42R
GRAND CANYON   PTCLDY    17   7  64 CALM      30.47F
KINGMAN        PTCLDY    39  16  39 VRB3      30.31F
FLAGSTAFF      PTCLDY    23  12  62 NE3       30.47S

$$

REGIONAL REPORTS    NEVADA/IDAHO/WYOMING

CITY           SKY/WX    TMP DP  RH WIND       PRES   REMARKS
LAS VEGAS, NV  CLEAR     48  18  30 SW7       30.27S
ELY            MOCLDY    28  15  58 S12       30.42F WCI  18
ELKO           CLOUDY    33  28  81 CALM      30.32F
POCATELLO, ID  CLEAR     48  27  44 W5        30.22F
BURLEY         CLOUDY    52  27  38 SW16G24   30.19F
EVANSTON, WY   PTCLDY    33  22  63 SW21      30.34F WCI  21
ROCK SPRINGS   MOCLDY    35  19  52 W6        30.32F WCI  30

$$


USA.gov is the U.S. government's official web portal to all federal, state and local government web resources and services.